Location: Ammerl�gen
(47.2167°N, 9.6000°E)
Time: 14:24:16
(UTC+00:00)

RS-15 - Pass Details

Date: 16 December 2021
Orbit: 1882 x 2162 km, 64.8° (Epoch: 28 January)

Event Time Altitude Azimuth Distance (km) Brightness Sun altitude
Exits shadow 00:04:17 21° 49° (NE) 3,750 9.6 -64.3°
Drops below altitude 10° 00:07:34 10° 42° (NE) 4,629 10.2 -64.1°
Sets 00:11:11 0° 38° (NE) 5,659 10.8 -63.8°
